Location: Newark
(3.0500°N, 36.0167°E)
Time: 00:19:53
(UTC+00:00)

Vanguard 1 Rocket - All Passes

Search period start: 24 August 2019 00:00
Search period end: 03 September 2019 00:00
Orbit: 652 x 4224 km, 34.3° (Epoch: 22 August)

Date Brightness Start Highest point End Pass type
(mag) Time Alt. Az. Time Alt. Az. Time Alt. Az.
24 Aug - 03:10:03 10° NNE 03:11:46 11° NE 03:13:40 10° NE visible
24 Aug - 05:28:46 10° NW 05:38:57 56° NE 05:58:35 10° ESE daylight
24 Aug - 07:54:11 10° WNW 08:08:58 60° SSW 08:33:51 10° SE daylight
24 Aug - 10:27:25 10° WSW 10:45:04 27° SSW 11:05:21 10° SSE daylight
24 Aug - 13:13:46 10° SW 13:27:02 16° S 13:38:11 10° SSE daylight
24 Aug - 15:52:06 10° SSW 16:05:13 22° SSE 16:13:47 10° ESE visible
24 Aug - 18:23:02 10° SW 18:35:38 59° SSE 18:42:09 10° ENE visible
24 Aug - 20:55:30 10° W 21:00:54 21° NW 21:04:49 10° N night (unlit)
25 Aug - 04:19:00 10° NNW 04:26:48 32° NE 04:40:19 10° E daylight
25 Aug - 06:42:22 10° WNW 06:54:37 81° SW 07:18:06 10° SE daylight
25 Aug - 09:11:29 10° W 09:27:58 36° SSW 09:50:48 10° SSE daylight
25 Aug - 11:52:29 10° SW 12:08:07 18° SSW 12:22:57 10° SSE daylight
25 Aug - 14:36:02 10° SSW 14:49:33 18° S 14:59:23 10° SE daylight
25 Aug - 17:08:35 10° SW 17:23:00 39° SSE 17:30:50 10° E visible
25 Aug - 19:40:16 10° WSW 19:50:04 52° NW 19:55:34 10° NE visible
26 Aug - 03:10:39 10° N 03:14:56 15° NE 03:20:35 10° ENE visible
26 Aug - 05:31:33 10° NW 05:41:31 70° NE 06:01:32 10° ESE daylight
26 Aug - 07:57:46 10° W 08:12:06 49° SSW 08:35:47 10° SE daylight
26 Aug - 10:32:51 10° WSW 10:49:23 23° SSW 11:07:55 10° SSE daylight
26 Aug - 13:18:02 10° SSW 13:32:09 17° S 13:43:38 10° SE daylight
26 Aug - 15:53:41 10° SSW 16:09:11 29° SSE 16:18:30 10° ESE visible
26 Aug - 18:25:23 10° SW 18:38:45 83° SE 18:45:26 10° ENE visible
26 Aug - 21:00:16 10° WNW 21:03:45 14° NW 21:06:36 10° N night (unlit)
27 Aug - 04:21:31 10° NNW 04:29:26 41° NE 04:44:10 10° ESE daylight
27 Aug - 06:45:35 10° WNW 06:57:31 66° SW 07:20:14 10° SE daylight
27 Aug - 09:16:04 10° WSW 09:31:46 30° SSW 09:52:51 10° SSE daylight
27 Aug - 11:58:15 10° SW 12:13:18 17° S 12:27:14 10° SSE daylight
27 Aug - 14:38:03 10° SSW 14:53:57 23° SSE 15:04:47 10° ESE daylight
27 Aug - 17:10:27 10° SW 17:26:25 53° SSE 17:34:32 10° ENE visible
27 Aug - 19:43:40 10° WSW 19:52:48 36° NW 19:58:13 10° NNE visible
28 Aug - 03:12:30 10° N 03:17:52 20° NE 03:25:50 10° E visible
28 Aug - 05:34:28 10° NW 05:44:13 87° NE 06:04:09 10° SE daylight
28 Aug - 08:01:41 10° W 08:15:32 39° SSW 08:37:39 10° SE daylight
28 Aug - 10:38:38 10° SW 10:54:08 20° SSW 11:10:59 10° SSE daylight
28 Aug - 13:21:19 10° SSW 13:37:05 19° S 13:49:20 10° SE daylight
28 Aug - 15:55:20 10° SW 16:12:54 37° SSE 16:22:44 10° E visible
28 Aug - 18:28:01 10° WSW 18:41:38 73° NW 18:48:28 10° NE visible
29 Aug - 04:24:10 10° NW 04:32:03 54° NE 04:47:31 10° ESE daylight
29 Aug - 06:49:02 10° WNW 07:00:39 53° SSW 07:22:11 10° SE daylight
29 Aug - 09:21:07 10° WSW 09:35:56 25° SSW 09:55:06 10° SSE daylight
29 Aug - 12:03:13 10° SW 12:18:33 18° S 12:32:21 10° SE daylight
29 Aug - 14:39:53 10° SSW 14:58:03 29° SSE 15:09:40 10° ESE daylight
29 Aug - 17:12:33 10° SW 17:29:36 70° SE 17:37:57 10° ENE visible
29 Aug - 19:47:34 10° W 19:55:31 25° NW 20:00:38 10° NNE visible
30 Aug - 03:14:43 10° NNW 03:20:38 27° NE 03:30:17 10° E daylight
30 Aug - 05:37:34 10° WNW 05:47:04 75° SW 06:06:28 10° SE daylight
30 Aug - 08:06:01 10° W 08:19:14 32° SSW 08:39:30 10° SSE daylight
30 Aug - 10:44:27 10° SW 10:59:12 18° S 11:14:48 10° SSE daylight
30 Aug - 13:23:54 10° SSW 13:41:41 23° SSE 13:54:52 10° ESE daylight
30 Aug - 15:57:07 10° SW 16:16:23 49° SSE 16:26:35 10° ENE visible
30 Aug - 18:31:00 10° WSW 18:44:23 53° NW 18:51:18 10° NE visible
31 Aug - 02:08:01 10° NNE 02:09:17 10° NE 02:10:39 10° NE visible
31 Aug - 04:26:59 10° NW 04:34:44 71° NE 04:50:29 10° ESE daylight
31 Aug - 06:52:47 10° W 07:04:02 42° SSW 07:24:00 10° SE daylight
31 Aug - 09:26:36 10° SW 09:40:28 21° SSW 09:57:43 10° SSE daylight
31 Aug - 12:07:12 10° SSW 12:23:40 19° S 12:38:00 10° SE daylight
31 Aug - 14:41:39 10° SW 15:01:53 36° SSE 15:14:06 10° E daylight
31 Aug - 17:14:53 10° SW 17:32:33 90° NW 17:41:06 10° NE visible
31 Aug - 19:52:06 10° W 19:58:18 18° NW 20:02:44 10° N visible
01 Sep - 03:17:10 10° NNW 03:23:19 38° NE 03:34:10 10° ESE daylight
01 Sep - 05:40:54 10° WNW 05:50:10 58° SSW 06:08:34 10° SE daylight
01 Sep - 08:10:46 10° WSW 08:23:16 25° SSW 08:41:26 10° SSE daylight
01 Sep - 10:49:47 10° SW 11:04:28 18° S 11:19:31 10° SE daylight
01 Sep - 13:26:07 10° SSW 13:45:57 28° SSE 14:00:01 10° ESE daylight
01 Sep - 15:59:02 10° SW 16:19:37 62° SSE 16:30:07 10° ENE visible
01 Sep - 18:34:22 10° WSW 18:47:01 39° NW 18:53:58 10° NNE visible
02 Sep - 02:08:36 10° N 02:12:14 16° NE 02:17:00 10° ENE visible
02 Sep - 04:29:58 10° NW 04:37:33 87° SW 04:53:07 10° SE daylight
02 Sep - 06:56:54 10° W 07:07:40 33° SSW 07:25:44 10° SSE daylight
02 Sep - 09:32:18 10° SW 09:45:22 18° S 10:00:57 10° SSE daylight
02 Sep - 12:10:22 10° SSW 12:28:30 22° SSE 12:43:45 10° ESE daylight
02 Sep - 14:43:27 10° SW 15:05:25 45° SSE 15:18:06 10° E daylight
02 Sep - 17:17:29 10° WSW 17:35:19 71° NW 17:44:04 10° NE visible
02 Sep - 19:57:39 10° WNW 20:01:14 12° NW 20:04:12 10° NNW visible
